Year,Month,Day,Hour,Minute,Value (Times are PST for temperature in C)
2023,05,26,00,00,17.10
2023,05,26,00,01,17.10
2023,05,26,00,02,17.20
2023,05,26,00,03,17.20
2023,05,26,00,04,17.20
2023,05,26,00,05,17.20
2023,05,26,00,06,17.20
2023,05,26,00,07,17.20
2023,05,26,00,08,17.10
2023,05,26,00,09,17.10
2023,05,26,00,10,17.10
2023,05,26,00,11,17.10
2023,05,26,00,12,17.00
2023,05,26,00,13,17.00
2023,05,26,00,14,16.90
2023,05,26,00,15,16.90
2023,05,26,00,16,16.90
2023,05,26,00,17,16.80
2023,05,26,00,18,16.80
2023,05,26,00,19,16.80
2023,05,26,00,20,16.70
2023,05,26,00,21,16.70
2023,05,26,00,22,16.60
2023,05,26,00,23,16.60
2023,05,26,00,24,16.60
2023,05,26,00,25,16.50
2023,05,26,00,26,16.50
2023,05,26,00,27,16.40
2023,05,26,00,28,16.40
2023,05,26,00,29,16.30
2023,05,26,00,30,16.30
2023,05,26,00,31,16.30
2023,05,26,00,32,16.20
2023,05,26,00,33,16.20
2023,05,26,00,34,16.20
2023,05,26,00,35,16.20
2023,05,26,00,36,16.20
2023,05,26,00,37,16.10
2023,05,26,00,38,16.10
2023,05,26,00,39,16.10
2023,05,26,00,40,16.10
2023,05,26,00,41,16.10
2023,05,26,00,42,16.00
2023,05,26,00,43,16.00
2023,05,26,00,44,16.00
2023,05,26,00,45,15.90
2023,05,26,00,46,15.90
2023,05,26,00,47,15.90
2023,05,26,00,48,15.90
2023,05,26,00,49,15.90
2023,05,26,00,50,15.90
2023,05,26,00,51,15.90
2023,05,26,00,52,15.90
2023,05,26,00,53,15.80
2023,05,26,00,54,15.80
2023,05,26,00,55,15.80
2023,05,26,00,56,15.80
2023,05,26,00,57,15.80
2023,05,26,00,58,15.80
2023,05,26,00,59,15.90
2023,05,26,01,00,15.90
2023,05,26,01,01,16.00
2023,05,26,01,02,16.00
2023,05,26,01,03,16.10
2023,05,26,01,04,16.10
2023,05,26,01,05,16.10
2023,05,26,01,06,16.10
2023,05,26,01,07,16.20
2023,05,26,01,08,16.20
2023,05,26,01,09,16.30
2023,05,26,01,10,16.40
2023,05,26,01,11,16.50
2023,05,26,01,12,16.60
2023,05,26,01,13,16.80
2023,05,26,01,14,16.90
2023,05,26,01,15,17.00
2023,05,26,01,16,17.10
2023,05,26,01,17,17.20
2023,05,26,01,18,17.20
2023,05,26,01,19,17.20
2023,05,26,01,20,17.10
2023,05,26,01,21,17.10
2023,05,26,01,22,17.00
2023,05,26,01,23,17.00
2023,05,26,01,24,17.00
2023,05,26,01,25,16.90
2023,05,26,01,26,16.90
2023,05,26,01,27,16.90
2023,05,26,01,28,16.80
2023,05,26,01,29,16.80
2023,05,26,01,30,16.80
2023,05,26,01,31,16.70
2023,05,26,01,32,16.70
2023,05,26,01,33,16.60
2023,05,26,01,34,16.60
2023,05,26,01,35,16.60
2023,05,26,01,36,16.50
2023,05,26,01,37,16.50
2023,05,26,01,38,16.50
2023,05,26,01,39,16.40
2023,05,26,01,40,16.40
2023,05,26,01,41,16.50
2023,05,26,01,42,16.50
2023,05,26,01,43,16.50
2023,05,26,01,44,16.60
2023,05,26,01,45,16.60
2023,05,26,01,46,16.60
2023,05,26,01,47,16.70
2023,05,26,01,48,16.80
2023,05,26,01,49,16.80
2023,05,26,01,50,16.90
2023,05,26,01,51,16.90
2023,05,26,01,52,17.00
2023,05,26,01,53,17.00
2023,05,26,01,54,17.00
2023,05,26,01,55,17.00
2023,05,26,01,56,17.10
2023,05,26,01,57,17.10
2023,05,26,01,58,17.10
2023,05,26,01,59,17.10
2023,05,26,02,00,17.00
2023,05,26,02,01,17.00
2023,05,26,02,02,17.00
2023,05,26,02,03,17.00
2023,05,26,02,04,17.00
2023,05,26,02,05,16.90
2023,05,26,02,06,16.90
2023,05,26,02,07,16.90
2023,05,26,02,08,16.90
2023,05,26,02,09,16.90
2023,05,26,02,10,16.80
2023,05,26,02,11,16.80
2023,05,26,02,12,16.80
2023,05,26,02,13,16.70
2023,05,26,02,14,16.70
2023,05,26,02,15,16.70
2023,05,26,02,16,16.70
2023,05,26,02,17,16.60
2023,05,26,02,18,16.60
2023,05,26,02,19,16.60
2023,05,26,02,20,16.60
2023,05,26,02,21,16.60
2023,05,26,02,22,16.60
2023,05,26,02,23,16.60
2023,05,26,02,24,16.60
2023,05,26,02,25,16.60
2023,05,26,02,26,16.60
2023,05,26,02,27,16.60
2023,05,26,02,28,16.50
2023,05,26,02,29,16.40
2023,05,26,02,30,16.30
2023,05,26,02,31,16.20
2023,05,26,02,32,16.10
2023,05,26,02,33,16.00
2023,05,26,02,34,16.00
2023,05,26,02,35,15.90
2023,05,26,02,36,15.80
2023,05,26,02,37,15.70
2023,05,26,02,38,15.70
2023,05,26,02,39,15.70
2023,05,26,02,40,15.70
2023,05,26,02,41,15.70
2023,05,26,02,42,15.60
2023,05,26,02,43,15.60
2023,05,26,02,44,15.60
2023,05,26,02,45,15.60
2023,05,26,02,46,15.60
2023,05,26,02,47,15.60
2023,05,26,02,48,15.60
2023,05,26,02,49,15.60
2023,05,26,02,50,15.60
2023,05,26,02,51,15.60
2023,05,26,02,52,15.60
2023,05,26,02,53,15.60
2023,05,26,02,54,15.60
2023,05,26,02,55,15.60
2023,05,26,02,56,15.60
2023,05,26,02,57,15.60
2023,05,26,02,58,15.60
2023,05,26,02,59,15.50
2023,05,26,03,00,15.50
2023,05,26,03,01,15.50
2023,05,26,03,02,15.40
2023,05,26,03,03,15.40
2023,05,26,03,04,15.40
2023,05,26,03,05,15.40
2023,05,26,03,06,15.30
2023,05,26,03,07,15.30
2023,05,26,03,08,15.30
2023,05,26,03,09,15.30
2023,05,26,03,10,15.30
2023,05,26,03,11,15.20
2023,05,26,03,12,15.20
2023,05,26,03,13,15.10
2023,05,26,03,14,15.10
2023,05,26,03,15,15.10
2023,05,26,03,16,15.10
2023,05,26,03,17,15.00
2023,05,26,03,18,15.00
2023,05,26,03,19,15.00
2023,05,26,03,20,15.00
2023,05,26,03,21,14.90
2023,05,26,03,22,14.90
2023,05,26,03,23,14.90
2023,05,26,03,24,14.90
2023,05,26,03,25,14.90
2023,05,26,03,26,14.90
2023,05,26,03,27,14.80
2023,05,26,03,28,14.80
2023,05,26,03,29,14.80
2023,05,26,03,30,14.80
2023,05,26,03,31,14.80
2023,05,26,03,32,14.80
2023,05,26,03,33,14.80
2023,05,26,03,34,14.80
2023,05,26,03,35,14.80
2023,05,26,03,36,14.80
2023,05,26,03,37,14.80
2023,05,26,03,38,14.80
2023,05,26,03,39,14.80
2023,05,26,03,40,14.80
2023,05,26,03,41,14.80
2023,05,26,03,42,14.80
2023,05,26,03,43,14.80
2023,05,26,03,44,14.80
2023,05,26,03,45,14.70
2023,05,26,03,46,14.70
2023,05,26,03,47,14.70
2023,05,26,03,48,14.70
2023,05,26,03,49,14.70
2023,05,26,03,50,14.70
2023,05,26,03,51,14.70
2023,05,26,03,52,14.70
2023,05,26,03,53,14.70
2023,05,26,03,54,14.70
2023,05,26,03,55,14.70
2023,05,26,03,56,14.70
2023,05,26,03,57,14.70
2023,05,26,03,58,14.70
2023,05,26,03,59,14.70
2023,05,26,04,00,14.70
2023,05,26,04,01,14.70
2023,05,26,04,02,14.70
2023,05,26,04,03,14.70
2023,05,26,04,04,14.70
2023,05,26,04,05,14.70
2023,05,26,04,06,14.70
2023,05,26,04,07,14.70
2023,05,26,04,08,14.70
2023,05,26,04,09,14.70
2023,05,26,04,10,14.70
2023,05,26,04,11,14.70
2023,05,26,04,12,14.70
2023,05,26,04,13,14.70
2023,05,26,04,14,14.70
2023,05,26,04,15,14.70
2023,05,26,04,16,14.70
2023,05,26,04,17,14.70
2023,05,26,04,18,14.70
2023,05,26,04,19,14.70
2023,05,26,04,20,14.70
2023,05,26,04,21,14.70
2023,05,26,04,22,14.70
2023,05,26,04,23,14.70
2023,05,26,04,24,14.70
2023,05,26,04,25,14.70
2023,05,26,04,26,14.70
2023,05,26,04,27,14.70
2023,05,26,04,28,14.70
2023,05,26,04,29,14.70
2023,05,26,04,30,14.70
2023,05,26,04,31,14.70
2023,05,26,04,32,14.70
2023,05,26,04,33,14.70
2023,05,26,04,34,14.70
2023,05,26,04,35,14.70
2023,05,26,04,36,14.80
2023,05,26,04,37,14.80
2023,05,26,04,38,14.80
2023,05,26,04,39,14.80
2023,05,26,04,40,14.80
2023,05,26,04,41,14.80
2023,05,26,04,42,14.80
2023,05,26,04,43,14.90
2023,05,26,04,44,14.90
2023,05,26,04,45,14.90
2023,05,26,04,46,15.00
2023,05,26,04,47,15.00
2023,05,26,04,48,15.10
2023,05,26,04,49,15.10
2023,05,26,04,50,15.20
2023,05,26,04,51,15.20
2023,05,26,04,52,15.30
2023,05,26,04,53,15.30
2023,05,26,04,54,15.30
2023,05,26,04,55,15.40
2023,05,26,04,56,15.40
2023,05,26,04,57,15.40
2023,05,26,04,58,15.40
2023,05,26,04,59,15.40
2023,05,26,05,00,15.50
2023,05,26,05,01,15.50
2023,05,26,05,02,15.50
2023,05,26,05,03,15.50
2023,05,26,05,04,15.50
2023,05,26,05,05,15.50
2023,05,26,05,06,15.60
2023,05,26,05,07,15.60
2023,05,26,05,08,15.60
2023,05,26,05,09,15.60
2023,05,26,05,10,15.60
2023,05,26,05,11,15.60
2023,05,26,05,12,15.70
2023,05,26,05,13,15.70
2023,05,26,05,14,15.70
2023,05,26,05,15,15.70
2023,05,26,05,16,15.70
2023,05,26,05,17,15.70
2023,05,26,05,18,15.70
2023,05,26,05,19,15.70
2023,05,26,05,20,15.70
2023,05,26,05,21,15.70
2023,05,26,05,22,15.70
2023,05,26,05,23,15.70
2023,05,26,05,24,15.70
2023,05,26,05,25,15.70
2023,05,26,05,26,15.70
2023,05,26,05,27,15.80
2023,05,26,05,28,15.80
2023,05,26,05,29,15.80
2023,05,26,05,30,15.80
2023,05,26,05,31,15.80
2023,05,26,05,32,15.80
2023,05,26,05,33,15.80
2023,05,26,05,34,15.80
2023,05,26,05,35,15.80
2023,05,26,05,36,15.80
2023,05,26,05,37,15.80
2023,05,26,05,38,15.80
2023,05,26,05,39,15.80
2023,05,26,05,40,15.80
2023,05,26,05,41,15.80
2023,05,26,05,42,15.80
2023,05,26,05,43,15.90
2023,05,26,05,44,15.90
2023,05,26,05,45,15.90
2023,05,26,05,46,15.90
2023,05,26,05,47,15.90
2023,05,26,05,48,15.90
2023,05,26,05,49,15.90
2023,05,26,05,50,15.90
2023,05,26,05,51,15.90
2023,05,26,05,52,15.90
2023,05,26,05,53,15.90
2023,05,26,05,54,15.90
2023,05,26,05,55,15.90
2023,05,26,05,56,15.90
2023,05,26,05,57,15.90
2023,05,26,05,58,15.90
2023,05,26,05,59,15.90
2023,05,26,06,00,15.90
2023,05,26,06,01,15.90
2023,05,26,06,02,15.90
2023,05,26,06,03,15.90
2023,05,26,06,04,15.90
2023,05,26,06,05,15.90
2023,05,26,06,06,15.90
2023,05,26,06,07,15.90
2023,05,26,06,08,15.90
2023,05,26,06,09,15.90
2023,05,26,06,10,15.90
2023,05,26,06,11,15.90
2023,05,26,06,12,15.90
2023,05,26,06,13,15.90
2023,05,26,06,14,16.00
2023,05,26,06,15,16.00
2023,05,26,06,16,16.00
2023,05,26,06,17,16.10
2023,05,26,06,18,16.10
2023,05,26,06,19,16.10
2023,05,26,06,20,16.10
2023,05,26,06,21,16.10
2023,05,26,06,22,16.10
2023,05,26,06,23,16.10
2023,05,26,06,24,16.10
2023,05,26,06,25,16.10
2023,05,26,06,26,16.10
2023,05,26,06,27,16.10
2023,05,26,06,28,16.10
2023,05,26,06,29,16.10
2023,05,26,06,30,16.10
2023,05,26,06,31,16.10
2023,05,26,06,32,16.10
2023,05,26,06,33,16.10
2023,05,26,06,34,16.20
2023,05,26,06,35,16.20
2023,05,26,06,36,16.20
2023,05,26,06,37,16.20
2023,05,26,06,38,16.20
2023,05,26,06,39,16.20
2023,05,26,06,40,16.30
2023,05,26,06,41,16.30
2023,05,26,06,42,16.30
2023,05,26,06,43,16.30
2023,05,26,06,44,16.30
2023,05,26,06,45,16.30
2023,05,26,06,46,16.40
2023,05,26,06,47,16.40
2023,05,26,06,48,16.40
2023,05,26,06,49,16.40
2023,05,26,06,50,16.40
2023,05,26,06,51,16.50
2023,05,26,06,52,16.50
2023,05,26,06,53,16.50
2023,05,26,06,54,16.50
2023,05,26,06,55,16.50
2023,05,26,06,56,16.50
2023,05,26,06,57,16.60
2023,05,26,06,58,16.60
2023,05,26,06,59,16.60
2023,05,26,07,00,16.60
2023,05,26,07,01,16.60
2023,05,26,07,02,16.60
2023,05,26,07,03,16.60
2023,05,26,07,04,16.60
2023,05,26,07,05,16.60
2023,05,26,07,06,16.60
2023,05,26,07,07,16.60
2023,05,26,07,08,16.60
2023,05,26,07,09,16.60
2023,05,26,07,10,16.70
2023,05,26,07,11,16.70
2023,05,26,07,12,16.70
2023,05,26,07,13,16.70
2023,05,26,07,14,16.70
2023,05,26,07,15,16.70
2023,05,26,07,16,16.70
2023,05,26,07,17,16.80
2023,05,26,07,18,16.80
2023,05,26,07,19,16.80
2023,05,26,07,20,16.80
2023,05,26,07,21,16.80
2023,05,26,07,22,16.80
2023,05,26,07,23,16.80
2023,05,26,07,24,16.80
2023,05,26,07,25,16.80
2023,05,26,07,26,16.90
2023,05,26,07,27,16.90
2023,05,26,07,28,17.00
2023,05,26,07,29,17.10
2023,05,26,07,30,17.20
2023,05,26,07,31,17.20
2023,05,26,07,32,17.30
2023,05,26,07,33,17.30
2023,05,26,07,34,17.50
2023,05,26,07,35,17.50
2023,05,26,07,36,17.60
2023,05,26,07,37,17.70
2023,05,26,07,38,17.70
2023,05,26,07,39,17.80
2023,05,26,07,40,17.80
2023,05,26,07,41,17.80
2023,05,26,07,42,17.80
2023,05,26,07,43,17.80
2023,05,26,07,44,17.80
2023,05,26,07,45,17.80
2023,05,26,07,46,17.90
2023,05,26,07,47,17.90
2023,05,26,07,48,17.90
2023,05,26,07,49,17.90
2023,05,26,07,50,17.90
2023,05,26,07,51,17.90
2023,05,26,07,52,17.90
2023,05,26,07,53,18.00
2023,05,26,07,54,18.00
2023,05,26,07,55,18.00
2023,05,26,07,56,18.10
2023,05,26,07,57,18.10
2023,05,26,07,58,18.10
2023,05,26,07,59,18.10
2023,05,26,08,00,18.20
2023,05,26,08,01,18.20
2023,05,26,08,02,18.20
2023,05,26,08,03,18.20
2023,05,26,08,04,18.20
2023,05,26,08,05,18.20
2023,05,26,08,06,18.30
2023,05,26,08,07,18.30
2023,05,26,08,08,18.30
2023,05,26,08,09,18.30
2023,05,26,08,10,18.30
2023,05,26,08,11,18.30
2023,05,26,08,12,18.30
2023,05,26,08,13,18.30
2023,05,26,08,14,18.40
2023,05,26,08,15,18.40
2023,05,26,08,16,18.40
2023,05,26,08,17,18.40
2023,05,26,08,18,18.50
2023,05,26,08,19,18.50
2023,05,26,08,20,18.60
2023,05,26,08,21,18.60
2023,05,26,08,22,18.60
2023,05,26,08,23,18.50
2023,05,26,08,24,18.50
2023,05,26,08,25,18.50
2023,05,26,08,26,18.50
2023,05,26,08,27,18.50
2023,05,26,08,28,18.50
2023,05,26,08,29,18.40
2023,05,26,08,30,18.40
2023,05,26,08,31,18.30
2023,05,26,08,32,18.20
2023,05,26,08,33,18.20
2023,05,26,08,34,18.20
2023,05,26,08,35,18.20
2023,05,26,08,36,18.20
2023,05,26,08,37,18.20
2023,05,26,08,38,18.20
2023,05,26,08,39,18.20
2023,05,26,08,40,18.20
2023,05,26,08,41,18.20
2023,05,26,08,42,18.20
2023,05,26,08,43,18.20
2023,05,26,08,44,18.20
2023,05,26,08,45,18.30
2023,05,26,08,46,18.30
2023,05,26,08,47,18.30
2023,05,26,08,48,18.30
2023,05,26,08,49,18.30
2023,05,26,08,50,18.40
2023,05,26,08,51,18.40
2023,05,26,08,52,18.40
2023,05,26,08,53,18.50
2023,05,26,08,54,18.60
2023,05,26,08,55,18.60
2023,05,26,08,56,18.70
2023,05,26,08,57,18.80
2023,05,26,08,58,18.80
2023,05,26,08,59,18.90
2023,05,26,09,00,19.00
2023,05,26,09,01,19.10
2023,05,26,09,02,19.20
2023,05,26,09,03,19.30
2023,05,26,09,04,19.40
2023,05,26,09,05,19.40
2023,05,26,09,06,19.40
2023,05,26,09,07,19.40
2023,05,26,09,08,19.50
2023,05,26,09,09,19.50
2023,05,26,09,10,19.60
2023,05,26,09,11,19.70
2023,05,26,09,12,19.70
2023,05,26,09,13,19.70
2023,05,26,09,14,19.70
2023,05,26,09,15,19.80
2023,05,26,09,16,19.80
2023,05,26,09,17,19.80
2023,05,26,09,18,19.80
2023,05,26,09,19,19.80
2023,05,26,09,20,19.80
2023,05,26,09,21,19.80
2023,05,26,09,22,19.90
2023,05,26,09,23,19.80
2023,05,26,09,24,19.80
2023,05,26,09,25,19.80
2023,05,26,09,26,19.70
2023,05,26,09,27,19.70
2023,05,26,09,28,19.70
2023,05,26,09,29,19.70
2023,05,26,09,30,19.70
2023,05,26,09,31,19.70
2023,05,26,09,32,19.80
2023,05,26,09,33,19.80
2023,05,26,09,34,19.70
2023,05,26,09,35,19.70
2023,05,26,09,36,19.70
2023,05,26,09,37,19.70
2023,05,26,09,38,19.80
2023,05,26,09,39,19.80
2023,05,26,09,40,19.90
2023,05,26,09,41,19.90
2023,05,26,09,42,20.00
2023,05,26,09,43,20.00
2023,05,26,09,44,20.00
2023,05,26,09,45,20.00
2023,05,26,09,46,20.00
2023,05,26,09,47,20.00
2023,05,26,09,48,20.10
2023,05,26,09,49,20.20
2023,05,26,09,50,20.30
2023,05,26,09,51,20.30
2023,05,26,09,52,20.30
2023,05,26,09,53,20.30
2023,05,26,09,54,20.40
2023,05,26,09,55,20.40
2023,05,26,09,56,20.40
2023,05,26,09,57,20.30
2023,05,26,09,58,20.30
2023,05,26,09,59,20.30
2023,05,26,10,00,20.30
2023,05,26,10,01,20.30
2023,05,26,10,02,20.30
2023,05,26,10,03,20.30
2023,05,26,10,04,20.30
2023,05,26,10,05,20.30
2023,05,26,10,06,20.40
2023,05,26,10,07,20.40
2023,05,26,10,08,20.40
2023,05,26,10,09,20.30
2023,05,26,10,10,20.20
2023,05,26,10,11,20.10
2023,05,26,10,12,20.10
2023,05,26,10,13,20.10
2023,05,26,10,14,20.20
2023,05,26,10,15,20.20
2023,05,26,10,16,20.20
2023,05,26,10,17,20.20
2023,05,26,10,18,20.30
2023,05,26,10,19,20.30
2023,05,26,10,20,20.40
2023,05,26,10,21,20.50
2023,05,26,10,22,20.60
2023,05,26,10,23,20.60
2023,05,26,10,24,20.70
2023,05,26,10,25,20.80
2023,05,26,10,26,20.80
2023,05,26,10,27,20.90
2023,05,26,10,28,20.90
2023,05,26,10,29,21.00
2023,05,26,10,30,21.00
2023,05,26,10,31,21.10
2023,05,26,10,32,21.20
2023,05,26,10,33,21.30
2023,05,26,10,34,21.30
2023,05,26,10,35,21.40
2023,05,26,10,36,21.40
2023,05,26,10,37,21.50
2023,05,26,10,38,21.40
2023,05,26,10,39,21.40
2023,05,26,10,40,21.40
2023,05,26,10,41,21.40
2023,05,26,10,42,21.30
2023,05,26,10,43,21.20
2023,05,26,10,44,21.20
2023,05,26,10,45,21.20
2023,05,26,10,46,21.20
2023,05,26,10,47,21.20
2023,05,26,10,48,21.20
2023,05,26,10,49,21.20
2023,05,26,10,50,21.10
2023,05,26,10,51,21.00
2023,05,26,10,52,20.90
2023,05,26,10,53,20.80
2023,05,26,10,54,20.70
2023,05,26,10,55,20.60
2023,05,26,10,56,20.70
2023,05,26,10,57,20.70
2023,05,26,10,58,20.70
2023,05,26,10,59,20.70
2023,05,26,11,00,20.70
2023,05,26,11,01,20.80
2023,05,26,11,02,20.90
2023,05,26,11,03,21.00
2023,05,26,11,04,21.00
2023,05,26,11,05,21.10
2023,05,26,11,06,21.20
2023,05,26,11,07,21.30
2023,05,26,11,08,21.40
2023,05,26,11,09,21.50
2023,05,26,11,10,21.60
2023,05,26,11,11,21.60
2023,05,26,11,12,21.70
2023,05,26,11,13,21.70
2023,05,26,11,14,21.70
2023,05,26,11,15,21.60
2023,05,26,11,16,21.60
2023,05,26,11,17,21.60
2023,05,26,11,18,21.70
2023,05,26,11,19,21.70
2023,05,26,11,20,21.70
2023,05,26,11,21,21.70
2023,05,26,11,22,21.70
2023,05,26,11,23,21.70
2023,05,26,11,24,21.70
2023,05,26,11,25,21.70
2023,05,26,11,26,21.80
2023,05,26,11,27,21.70
2023,05,26,11,28,21.70
2023,05,26,11,29,21.70
2023,05,26,11,30,21.60
2023,05,26,11,31,21.50
2023,05,26,11,32,21.40
2023,05,26,11,33,21.30
2023,05,26,11,34,21.40
2023,05,26,11,35,21.30
2023,05,26,11,36,21.30
2023,05,26,11,37,21.30
2023,05,26,11,38,21.30
2023,05,26,11,39,21.30
2023,05,26,11,40,21.30
2023,05,26,11,41,21.30
2023,05,26,11,42,21.30
2023,05,26,11,43,21.30
2023,05,26,11,44,21.30
2023,05,26,11,45,21.20
2023,05,26,11,46,21.20
2023,05,26,11,47,21.10
2023,05,26,11,48,21.00
2023,05,26,11,49,21.00
2023,05,26,11,50,21.00
2023,05,26,11,51,21.00
2023,05,26,11,52,21.00
2023,05,26,11,53,20.90
2023,05,26,11,54,20.80
2023,05,26,11,55,20.80
2023,05,26,11,56,20.80
2023,05,26,11,57,20.90
2023,05,26,11,58,21.00
2023,05,26,11,59,21.00
2023,05,26,12,00,21.10
2023,05,26,12,01,21.10
2023,05,26,12,02,21.00
2023,05,26,12,03,20.90
2023,05,26,12,04,20.90
2023,05,26,12,05,20.80
2023,05,26,12,06,20.80
2023,05,26,12,07,20.90
2023,05,26,12,08,20.90
2023,05,26,12,09,20.90
2023,05,26,12,10,20.90
2023,05,26,12,11,21.00
2023,05,26,12,12,21.00
2023,05,26,12,13,21.20
2023,05,26,12,14,21.20
2023,05,26,12,15,21.20
2023,05,26,12,16,21.20
2023,05,26,12,17,21.10
2023,05,26,12,18,21.10
2023,05,26,12,19,21.10
2023,05,26,12,20,21.10
2023,05,26,12,21,21.00
2023,05,26,12,22,20.90
2023,05,26,12,23,20.80
2023,05,26,12,24,20.80
2023,05,26,12,25,20.80
2023,05,26,12,26,20.80
2023,05,26,12,27,20.90
2023,05,26,12,28,20.90
2023,05,26,12,29,20.80
2023,05,26,12,30,20.80
2023,05,26,12,31,20.80
2023,05,26,12,32,20.80
2023,05,26,12,33,20.80
2023,05,26,12,34,20.90
2023,05,26,12,35,21.10
2023,05,26,12,36,21.30
2023,05,26,12,37,21.40
2023,05,26,12,38,21.50
2023,05,26,12,39,21.60
2023,05,26,12,40,21.60
2023,05,26,12,41,21.70
2023,05,26,12,42,21.70
2023,05,26,12,43,21.60
2023,05,26,12,44,21.60
2023,05,26,12,45,21.60
2023,05,26,12,46,21.50
2023,05,26,12,47,21.40
2023,05,26,12,48,21.30
2023,05,26,12,49,21.30
2023,05,26,12,50,21.30
2023,05,26,12,51,21.30
2023,05,26,12,52,21.40
2023,05,26,12,53,21.30
2023,05,26,12,54,21.20
2023,05,26,12,55,21.00
2023,05,26,12,56,20.80
2023,05,26,12,57,20.80
2023,05,26,12,58,20.80
2023,05,26,12,59,20.80
2023,05,26,13,00,20.80
2023,05,26,13,01,20.80
2023,05,26,13,02,20.80
2023,05,26,13,03,20.80
2023,05,26,13,04,20.80
2023,05,26,13,05,20.70
2023,05,26,13,06,20.70
2023,05,26,13,07,20.70
2023,05,26,13,08,20.70
2023,05,26,13,09,20.70
2023,05,26,13,10,20.60
2023,05,26,13,11,20.60
2023,05,26,13,12,20.60
2023,05,26,13,13,20.60
2023,05,26,13,14,20.60
2023,05,26,13,15,20.50
2023,05,26,13,16,20.30
2023,05,26,13,17,20.20
2023,05,26,13,18,20.00
2023,05,26,13,19,19.90
2023,05,26,13,20,19.90
2023,05,26,13,21,19.90
2023,05,26,13,22,19.90
2023,05,26,13,23,19.80
2023,05,26,13,24,19.80
2023,05,26,13,25,19.90
2023,05,26,13,26,19.90
2023,05,26,13,27,19.90
2023,05,26,13,28,20.00
2023,05,26,13,29,20.00
2023,05,26,13,30,20.00
2023,05,26,13,31,20.00
2023,05,26,13,32,20.10
2023,05,26,13,33,20.20
2023,05,26,13,34,20.30
2023,05,26,13,35,20.50
2023,05,26,13,36,20.60
2023,05,26,13,37,20.60
2023,05,26,13,38,20.80
2023,05,26,13,39,20.90
2023,05,26,13,40,20.90
2023,05,26,13,41,20.80
2023,05,26,13,42,20.80
2023,05,26,13,43,20.70
2023,05,26,13,44,20.70
2023,05,26,13,45,20.80
2023,05,26,13,46,20.80
2023,05,26,13,47,20.80
2023,05,26,13,48,20.80
2023,05,26,13,49,20.70
2023,05,26,13,50,20.70
2023,05,26,13,51,20.60
2023,05,26,13,52,20.60
2023,05,26,13,53,20.70
2023,05,26,13,54,20.90
2023,05,26,13,55,21.10
2023,05,26,13,56,21.30
2023,05,26,13,57,21.30
2023,05,26,13,58,21.40
2023,05,26,13,59,21.40
2023,05,26,14,00,21.40
2023,05,26,14,01,21.40
2023,05,26,14,02,21.40
2023,05,26,14,03,21.30
2023,05,26,14,04,21.20
2023,05,26,14,05,21.10
2023,05,26,14,06,21.00
2023,05,26,14,07,21.00
2023,05,26,14,08,20.90
2023,05,26,14,09,20.90
2023,05,26,14,10,20.90
2023,05,26,14,11,20.90
2023,05,26,14,12,20.90
2023,05,26,14,13,21.00
2023,05,26,14,14,21.00
2023,05,26,14,15,21.00
2023,05,26,14,16,21.00
2023,05,26,14,17,20.90
2023,05,26,14,18,20.90
2023,05,26,14,19,20.90
2023,05,26,14,20,20.90
2023,05,26,14,21,20.90
2023,05,26,14,22,20.90
2023,05,26,14,23,20.90
2023,05,26,14,24,20.90
2023,05,26,14,25,21.00
2023,05,26,14,26,21.10
2023,05,26,14,27,21.20
2023,05,26,14,28,21.20
2023,05,26,14,29,21.20
2023,05,26,14,30,21.20
2023,05,26,14,31,21.20
2023,05,26,14,32,21.30
2023,05,26,14,33,21.30
2023,05,26,14,34,21.30
2023,05,26,14,35,21.20
2023,05,26,14,36,21.20
2023,05,26,14,37,21.20
2023,05,26,14,38,21.20
2023,05,26,14,39,21.20
2023,05,26,14,40,21.20
2023,05,26,14,41,21.20
2023,05,26,14,42,21.10
2023,05,26,14,43,21.10
2023,05,26,14,44,21.10
2023,05,26,14,45,21.20
2023,05,26,14,46,21.20
2023,05,26,14,47,21.10
2023,05,26,14,48,21.10
2023,05,26,14,49,21.00
2023,05,26,14,50,20.90
2023,05,26,14,51,20.80
2023,05,26,14,52,20.80
2023,05,26,14,53,20.80
2023,05,26,14,54,20.80
2023,05,26,14,55,20.90
2023,05,26,14,56,20.90
2023,05,26,14,57,21.00
2023,05,26,14,58,21.10
2023,05,26,14,59,21.20
2023,05,26,15,00,21.30
2023,05,26,15,01,21.40
2023,05,26,15,02,21.50
2023,05,26,15,03,21.50
2023,05,26,15,04,21.60
2023,05,26,15,05,21.70
2023,05,26,15,06,21.70
2023,05,26,15,07,21.80
2023,05,26,15,08,21.90
2023,05,26,15,09,22.00
2023,05,26,15,10,22.00
2023,05,26,15,11,22.00
2023,05,26,15,12,22.00
2023,05,26,15,13,22.00
2023,05,26,15,14,22.00
2023,05,26,15,15,21.90
2023,05,26,15,16,21.90
2023,05,26,15,17,21.90
2023,05,26,15,18,22.00
2023,05,26,15,19,22.00
2023,05,26,15,20,22.00
2023,05,26,15,21,21.90
2023,05,26,15,22,21.90
2023,05,26,15,23,21.90
2023,05,26,15,24,21.90
2023,05,26,15,25,21.90
2023,05,26,15,26,21.90
2023,05,26,15,27,21.80
2023,05,26,15,28,21.70
2023,05,26,15,29,21.70
2023,05,26,15,30,21.60
2023,05,26,15,31,21.60
2023,05,26,15,32,21.60
2023,05,26,15,33,21.70
2023,05,26,15,34,21.70
2023,05,26,15,35,21.80
2023,05,26,15,36,21.80
2023,05,26,15,37,21.80
2023,05,26,15,38,21.80
2023,05,26,15,39,21.90
2023,05,26,15,40,22.00
2023,05,26,15,41,21.90
2023,05,26,15,42,21.90
2023,05,26,15,43,21.90
2023,05,26,15,44,21.90
2023,05,26,15,45,21.90
2023,05,26,15,46,22.00
2023,05,26,15,47,22.10
2023,05,26,15,48,22.20
2023,05,26,15,49,22.30
2023,05,26,15,50,22.30
2023,05,26,15,51,22.40
2023,05,26,15,52,22.50
2023,05,26,15,53,22.60
2023,05,26,15,54,22.60
2023,05,26,15,55,22.60
2023,05,26,15,56,22.60
2023,05,26,15,57,22.60
2023,05,26,15,58,22.60
2023,05,26,15,59,22.60
2023,05,26,16,00,22.60
2023,05,26,16,01,22.70
2023,05,26,16,02,22.70
2023,05,26,16,03,22.70
2023,05,26,16,04,22.70
2023,05,26,16,05,22.70
2023,05,26,16,06,22.70
2023,05,26,16,07,22.60
2023,05,26,16,08,22.50
2023,05,26,16,09,22.40
2023,05,26,16,10,22.30
2023,05,26,16,11,22.30
2023,05,26,16,12,22.20
2023,05,26,16,13,22.20
2023,05,26,16,14,22.20
2023,05,26,16,15,22.30
2023,05,26,16,16,22.30
2023,05,26,16,17,22.30
2023,05,26,16,18,22.30
2023,05,26,16,19,22.30
2023,05,26,16,20,22.30
2023,05,26,16,21,22.20
2023,05,26,16,22,22.10
2023,05,26,16,23,22.00
2023,05,26,16,24,21.90
2023,05,26,16,25,21.90
2023,05,26,16,26,21.90
2023,05,26,16,27,21.80
2023,05,26,16,28,21.80
2023,05,26,16,29,21.70
2023,05,26,16,30,21.70
2023,05,26,16,31,21.60
2023,05,26,16,32,21.60
2023,05,26,16,33,21.50
2023,05,26,16,34,21.50
2023,05,26,16,35,21.50
2023,05,26,16,36,21.50
2023,05,26,16,37,21.60
2023,05,26,16,38,21.60
2023,05,26,16,39,21.70
2023,05,26,16,40,21.80
2023,05,26,16,41,21.80
2023,05,26,16,42,21.90
2023,05,26,16,43,22.00
2023,05,26,16,44,22.10
2023,05,26,16,45,22.20
2023,05,26,16,46,22.20
2023,05,26,16,47,22.30
2023,05,26,16,48,22.30
2023,05,26,16,49,22.40
2023,05,26,16,50,22.40
2023,05,26,16,51,22.40
2023,05,26,16,52,22.40
2023,05,26,16,53,22.50
2023,05,26,16,54,22.50
2023,05,26,16,55,22.50
2023,05,26,16,56,22.40
2023,05,26,16,57,22.40
2023,05,26,16,58,22.40
2023,05,26,16,59,22.40
2023,05,26,17,00,22.30
2023,05,26,17,01,22.30
2023,05,26,17,02,22.30
2023,05,26,17,03,22.10
2023,05,26,17,04,22.00
2023,05,26,17,05,22.00
2023,05,26,17,06,22.00
2023,05,26,17,07,21.90
2023,05,26,17,08,21.90
2023,05,26,17,09,22.00
2023,05,26,17,10,22.10
2023,05,26,17,11,22.10
2023,05,26,17,12,22.20
2023,05,26,17,13,22.30
2023,05,26,17,14,22.30
2023,05,26,17,15,22.30
2023,05,26,17,16,22.30
2023,05,26,17,17,22.30
2023,05,26,17,18,22.40
2023,05,26,17,19,22.40